Volver al catálogo

SL-16 DEB

ActivoLEO
NORAD 22603·DEBRIS·🇷🇺 Russia

Lanzado Mar 26, 1993 desde Baikonur Cosmodrome

Loading…

Próximos Pases (próximas 24 horas)

TLE

ActualizadoSource: Space-Track

Época: Sep 14, 2026, 09:21 UTC

1 22603U 93016M   26257.38999318 -.00000033  00000-0  10109-4 0  9996
2 22603  70.9944 223.3535 0161234 240.5783 289.1342 13.78758734683871

Sigue SL-16 DEB en tiempo real con AllMySat

Download on the App Store